Location: Founex
(46.3327°N, 6.1917°E)
Time: 17:08:17
(UTC+00:00)

Daily predictions for brighter satellites

Satellite Brightness Start Highest point End
(mag) Time Altitude Azimuth Time Altitude Azimuth Time Altitude Azimuth
ATLAS 2AS CENTAUR R/B 3.4 16:58:39 10° NNW 17:05:11 36° NNE 17:11:19 10° E
Cosmos 1455 3.9 17:02:03 10° NNW 17:05:35 37° W 17:09:05 10° SSW
USA 215 3.6 16:59:07 10° SE 17:05:41 77° SW 17:12:15 10° NW
Cosmos 2278 4.3 17:00:37 10° S 17:05:49 39° ESE 17:11:03 10° NE
SKYMED 2 4.4 17:04:24 10° NNE 17:08:17 30° E 17:12:07 10° SSE
Cosmos 2360 Rocket 4.0 17:13:30 10° ESE 17:14:53 11° E 17:16:16 10° E
AQUARIUS 4.5 17:13:04 10° S 17:17:32 73° WSW 17:22:01 10° NNW
DMSP B5D2-2 4.2 17:12:29 10° NNE 17:17:44 60° E 17:22:55 10° S
Cosmos 1607 4.0 17:12:18 10° SSW 17:18:22 71° ESE 17:24:32 10° NE
Meteor PRIRODA 3.5 17:15:07 10° SSE 17:18:39 89° ENE 17:22:13 10° NNW
Cosmos 1025 Rocket 4.0 17:16:11 10° SSW 17:20:20 49° WNW 17:24:31 10° N
YAOGAN 1 3.7 17:19:10 10° ESE 17:22:31 22° ENE 17:25:53 10° NNE
Cosmos 2322 Rocket 3.4 17:20:31 10° SE 17:24:29 20° E 17:28:28 10° NE
SL-4 R/B 2.1 17:21:32 10° W 17:24:55 53° NNW 17:28:15 12° ENE
COBE Rocket 4.4 17:20:50 10° S 17:25:34 63° W 17:30:15 10° NNW
Cosmos 1975 Rocket 4.3 17:24:12 10° SSW 17:28:29 45° WNW 17:32:47 10° N
Cosmos 1892 3.7 17:27:22 10° SE 17:30:25 25° E 17:33:30 10° NE
ATLAS CENTAUR R/B 1.7 17:26:20 10° SW 17:31:05 89° ESE 17:35:41 10° NE
Cosmos 1703 3.8 17:28:11 10° SSW 17:31:57 60° W 17:35:45 10° N
Cosmos 1536 Rocket 3.6 17:28:06 10° S 17:32:19 56° E 17:36:34 10° NNE
Cosmos 407 Rocket 3.5 17:27:47 10° S 17:32:51 60° ESE 17:37:54 10° NNE
NOSS 2-1 (E) 4.0 17:29:00 10° NW 17:33:26 89° SW 17:39:42 10° SE
Cosmos 1340 Rocket 2.7 17:30:41 10° S 17:34:29 62° E 17:38:21 10° NNE
SL-16 R/B 2.8 17:31:30 10° S 17:36:37 36° ESE 17:41:45 10° NE
PAYLOAD B 4.4 17:35:13 10° SE 17:40:30 48° ENE 17:45:46 10° N
Cosmos 1606 Rocket 4.1 17:41:56 10° N 17:45:56 35° ENE 17:49:53 10° SE
Lacrosse 5 2.9 17:42:45 10° S 17:47:06 29° SE 17:49:51 18° E
Cosmos 2369 4.5 17:43:02 10° SW 17:48:34 53° WNW 17:54:08 10° NNE
Cosmos 1190 Rocket 4.2 17:44:31 10° S 17:49:40 54° ESE 17:54:50 10° NNE
Cosmos 1140 Rocket 3.5 17:44:47 10° SSW 17:49:59 83° WNW 17:55:11 10° NNE
BlueWalker 3 2.8 17:46:20 10° W 17:50:01 41° NNW 17:52:39 17° NE
Cosmos 1825 3.1 17:47:57 10° SSE 17:51:03 26° E 17:52:39 19° NE
Cosmos 1408 2.2 17:48:25 10° S 17:51:47 72° E 17:55:12 10° NNE
Cosmos 1655 Rocket 4.1 17:46:06 10° N 17:52:23 83° W 17:58:36 10° S
Cosmos 1980 Rocket 3.1 17:47:09 10° SW 17:52:39 50° WNW 17:58:11 10° NNE
ATLAS 5 CENTAUR R/B 3.9 17:54:12 10° NW 17:55:57 12° NNW 17:57:47 10° N
COSMO-SKYMED 1 2.6 17:52:05 10° NNE 17:56:27 86° WNW 18:00:48 10° SSW
Cosmos 2228 2.9 17:56:00 10° N 18:00:15 88° ENE 18:04:29 10° S
Cosmos 1633 3.9 18:02:31 10° SSE 18:04:00 20° SE 18:04:00 20° SE
MOS 1-B 4.3 18:00:30 10° SSE 18:06:11 60° ENE 18:11:54 10° N
USA 102 4.4 18:00:21 14° ESE 18:07:13 46° ENE 18:09:00 31° NNE
Cosmos 2263 Rocket 3.4 18:03:15 10° NW 18:08:30 44° WSW 18:13:43 10° S
CZ-4 R/B 1.8 18:06:20 10° SE 18:10:11 40° ENE 18:14:02 10° N
PSLV R/B 3.5 18:11:57 10° SSE 18:15:35 84° ENE 18:19:17 10° NNW
Okean O Rocket 1.8 18:13:14 10° SE 18:17:23 45° ENE 18:21:37 10° N
Meteor 1-11 4.2 18:12:17 10° S 18:18:03 72° E 18:23:52 10° NNE
Cosmos 1726 Rocket 3.4 18:15:07 10° N 18:19:24 60° ENE 18:23:39 10° SSE
Lacrosse 5 rocket 2.4 18:19:01 10° NW 18:21:53 24° NNE 18:21:53 24° NNE
ISS -3.6 18:19:27 10° WNW 18:22:49 71° SSW 18:23:39 46° SE
Cosmos 468 Rocket 3.9 18:17:40 10° NNW 18:22:50 63° ENE 18:27:46 11° SSE
RESURS DK-1 3.2 18:22:45 10° NNW 18:25:55 32° NE 18:25:55 32° NE
Cosmos 1954 Rocket 3.9 18:23:28 10° SSW 18:28:43 79° ESE 18:32:56 16° NNE
Cosmos 1553 Rocket 3.9 18:25:15 10° S 18:31:10 59° E 18:37:11 10° NNE
COSMOS 2455 4.4 18:29:44 10° WSW 18:35:03 31° NW 18:40:24 10° NNE
IRIDIUM 104 4.2 18:30:14 10° N 18:35:27 67° E 18:40:38 10° SSE
CZ-4B R/B 3.1 18:30:55 10° SSE 18:36:14 86° WSW 18:41:42 10° NNW
SL-08 R/B 4.4 18:33:02 10° N 18:39:17 72° E 18:45:33 10° SSE
Cosmos 1844 Rocket 2.5 18:34:53 10° NNW 18:40:30 76° ENE 18:43:47 26° SE
IRIDIUM 114 4.2 18:39:21 10° N 18:44:35 80° E 18:49:49 10° S
Feng Yun 1-1 Rocket 4.1 18:39:26 10° SSE 18:45:02 76° ENE 18:50:31 10° NNW
Cosmos 1763 Rocket 3.7 18:40:01 10° NNW 18:45:13 70° WSW 18:50:17 10° S
Cosmos 1844 3.6 18:41:00 10° NNW 18:46:50 74° ENE 18:49:24 35° SE
Spot 1 3.8 18:47:34 75° SE 18:47:34 75° SE 18:51:27 10° S
Cosmos 2058 Rocket 3.1 18:44:27 10° N 18:48:18 62° NNE 18:48:18 62° NNE
IRIDIUM 103 4.3 18:48:30 10° N 18:53:45 85° W 18:58:58 10° S
Cosmos 841 Rocket 3.5 18:49:44 10° NNW 18:54:41 57° NE 18:54:41 57° NE
Cosmos 2333 Rocket 2.6 18:50:14 10° S 18:54:33 42° SE 18:54:33 42° SE
ATLAS 2AS CENTAUR R/B 2.9 18:49:41 10° NW 18:56:38 69° WSW 19:01:41 18° SSE
Cosmos 2360 Rocket 2.0 18:52:13 10° SSW 18:57:49 74° ESE 18:59:03 54° NE
YAOGAN 1 3.9 18:54:18 10° SSW 18:58:22 40° W 19:02:26 10° NNW
Cosmos 2219 Rocket 3.9 18:54:57 10° S 18:56:23 17° SSE 18:56:23 17° SSE
Cosmos 2278 Rocket 4.0 18:59:28 10° N 19:01:28 17° NNE 19:01:28 17° NNE
S3M 3.9 18:58:22 10° S 19:04:40 65° E 19:10:59 10° NNE
SL-4 R/B 3.4 19:01:22 10° WNW 19:03:35 28° NW 19:03:35 28° NW
Cosmos 2322 Rocket 2.4 19:02:24 10° SW 19:07:58 67° WNW 19:10:36 32° NNE
Cosmos 540 Rocket 3.7 19:03:02 10° NNW 19:08:10 69° WSW 19:10:12 36° S
ATLAS CENTAUR R/B 3.8 19:06:50 10° W 19:10:13 19° NW 19:12:01 16° N
Cosmos 1461 3.8 19:12:07 10° SW 19:15:08 46° SW 19:15:08 46° SW
SL-16 R/B 3.4 19:15:20 10° SW 19:20:39 40° NW 19:24:12 20° N
Gblst 52 Del rocket 4.4 19:23:21 10° W 19:28:33 62° NW 19:28:33 62° NW
CSL-04 Debris 4.3 19:29:17 73° W 19:29:17 73° W 19:34:38 10° NNW
BlueWalker 3 4.3 19:25:53 10° WNW 19:27:27 20° NW 19:27:27 20° NW
Lacrosse 5 2.4 19:24:43 10° WSW 19:29:05 58° WNW 19:29:05 58° WNW
CSL-04 Rocket 4.2 19:39:31 51° NW 19:39:31 51° NW 19:43:40 10° NNW
BREEZE-M DEB (TANK) 4.4 19:12:18 10° WNW 19:44:59 89° SSW 19:47:04 63° ESE
CZ-4 R/B 4.0 19:42:10 10° SW 19:45:13 20° W 19:48:15 10° NW
BREEZE-M DEB (TANK) 3.7 19:36:09 10° WSW 19:45:22 59° WSW 19:45:22 59° WSW
Okean O Rocket 4.1 19:50:46 10° SW 19:53:57 20° W 19:57:11 10° NW
BREEZE-M DEB (TANK) 4.0 19:53:33 10° W 19:57:31 66° SW 19:57:31 66° SW
Cosmos 2360 Rocket 4.4 20:38:03 10° W 20:40:54 20° WNW 20:40:54 20° WNW
